Date,TemperatureHighF,TemperatureAvgF,TemperatureLowF,DewpointHighF,DewpointAvgF,DewpointLowF,HumidityHigh,HumidityAvg,HumidityLow,PressureMaxIn,PressureMinIn,WindSpeedMaxMPH,WindSpeedAvgMPH,GustSpeedMaxMPH,PrecipitationSumIn
2013-1-1,41,34,28,33,29,26,93,83,65,30.40,30.26,3,1,5,0.00
2013-1-2,46,36,28,32,26,19,94,69,41,30.26,30.10,2,0,3,0.00
2013-1-3,45,36,28,34,24,18,90,63,36,30.11,30.00,4,1,11,0.12
2013-1-4,49,43,37,45,41,34,97,90,79,30.22,30.06,3,0,3,0.08
2013-1-5,44,42,40,40,35,30,94,76,61,30.11,30.02,6,1,7,0.07
2013-1-6,46,42,39,41,39,37,94,87,78,30.09,29.90,5,1,7,0.06
2013-1-7,50,46,41,47,43,39,94,87,78,30.07,29.75,16,6,22,0.05
2013-1-8,54,48,42,48,44,38,96,86,73,30.07,29.64,12,4,17,0.28
2013-1-9,50,42,38,48,38,33,95,86,80,29.86,29.64,11,4,13,0.90
2013-1-10,39,37,32,35,33,30,96,87,82,30.02,29.85,3,0,3,0.01
2013-1-11,37,31,28,32,28,25,97,87,67,30.24,30.03,1,0,2,0.00
2013-1-12,37,30,25,29,24,23,92,81,59,30.35,30.23,3,0,3,0.01
2013-1-13,36,29,23,26,24,20,91,80,63,30.40,30.35,2,0,2,0.00
2013-1-14,38,33,28,30,27,25,87,79,64,30.47,30.39,1,0,2,0.00
2013-1-15,45,37,31,33,31,28,91,79,63,30.60,30.47,3,1,7,0.00
2013-1-16,41,32,27,34,30,25,96,89,74,30.59,30.42,1,0,2,0.00
2013-1-17,35,31,28,34,30,26,97,96,92,30.44,30.21,2,0,2,0.01
2013-1-18,36,32,29,36,32,29,98,98,97,30.25,30.18,4,0,4,0.00
2013-1-19,33,31,30,33,31,29,98,97,96,30.30,30.25,2,0,2,0.00
2013-1-20,36,32,29,36,32,29,98,98,97,30.30,30.17,3,0,4,0.00
2013-1-21,34,32,29,34,31,29,98,98,97,30.19,30.05,2,0,3,0.01
2013-1-22,39,33,28,35,32,28,98,94,84,30.06,29.82,3,0,4,0.00
2013-1-23,43,41,36,40,35,27,94,81,57,30.02,29.75,6,2,7,0.16
2013-1-24,46,41,36,40,37,33,94,86,66,30.12,29.96,6,1,8,0.14
2013-1-25,53,46,42,46,42,39,97,87,69,29.97,29.84,3,0,3,0.14
2013-1-26,47,43,39,40,38,36,94,83,68,29.92,29.79,13,4,17,0.05
2013-1-27,42,41,40,39,38,37,92,89,84,29.97,29.90,5,4,8,0.09
2013-1-28,42,41,39,41,39,37,95,92,86,29.99,29.92,5,3,10,0.31
2013-1-29,47,45,42,45,43,40,96,93,88,30.25,30.01,8,3,12,0.18
2013-1-30,48,47,44,47,45,43,97,95,92,30.29,30.23,7,4,13,0.09
2013-1-31,51,48,46,46,45,44,97,90,79,30.30,30.20,6,2,13,0.10
2013-2-1,50,47,43,46,44,41,97,91,77,30.31,30.23,4,1,8,0.01
2013-2-2,42,40,37,41,38,36,98,95,89,30.27,30.17,4,1,8,0.00
2013-2-3,48,43,36,44,40,35,96,92,81,30.21,30.12,5,1,7,0.06
2013-2-4,52,47,44,43,42,41,92,82,65,30.12,29.81,5,2,11,0.01
2013-2-5,50,46,44,44,42,39,93,84,71,29.84,29.75,8,4,14,0.15
2013-2-6,51,46,43,42,40,37,89,79,62,29.97,29.70,6,2,13,0.05
2013-2-7,50,44,39,41,36,33,89,72,52,30.07,29.70,9,2,13,0.05
2013-2-8,46,40,36,37,35,34,92,81,69,30.21,30.10,2,0,2,0.00
2013-2-9,46,42,39,40,38,36,94,86,71,30.23,30.17,1,0,2,0.00
2013-2-10,47,42,36,40,37,35,97,83,66,30.28,30.23,3,0,6,0.00
2013-2-11,48,44,39,41,38,36,91,81,67,30.26,30.23,2,0,5,0.00
2013-2-12,51,48,44,45,44,42,96,88,77,30.30,30.21,12,4,18,0.02
2013-2-13,48,47,44,45,41,39,93,82,71,30.39,30.21,10,3,11,0.03
2013-2-14,50,46,43,45,42,39,92,85,75,30.45,30.40,2,0,5,0.01
2013-2-15,55,44,39,45,41,38,98,90,66,30.45,30.11,3,0,3,0.01
2013-2-16,52,46,39,42,40,36,97,80,61,30.10,30.03,19,6,20,0.00
2013-2-17,49,43,41,37,35,31,81,72,50,30.15,30.03,5,1,5,0.00
2013-2-18,47,42,38,38,36,34,90,78,64,30.02,29.67,3,0,7,0.00
2013-2-19,53,43,38,37,34,31,88,73,48,29.90,29.64,7,2,7,0.00
2013-2-20,46,39,34,39,35,31,94,85,67,29.96,29.89,5,0,5,0.07
2013-2-21,43,40,38,39,38,36,93,90,83,29.98,29.92,8,3,13,0.01
2013-2-22,45,43,40,41,38,34,93,84,74,29.97,29.63,19,9,22,0.32
2013-2-23,50,44,39,36,35,33,84,73,55,30.28,29.81,8,2,11,0.00
2013-2-24,48,44,41,37,34,32,79,68,57,30.28,29.87,8,3,12,0.00
2013-2-25,51,44,40,39,35,29,88,73,42,30.21,29.81,19,10,21,0.08
2013-2-26,49,44,40,35,33,30,78,65,50,30.26,30.10,5,2,8,0.00
2013-2-27,51,45,40,43,40,36,96,84,67,30.21,30.11,6,1,6,0.25
2013-2-28,52,47,42,50,46,41,97,94,90,30.23,30.09,7,2,10,0.20
2013-3-1,60,55,52,51,49,48,94,81,68,30.27,30.19,11,5,17,0.05
2013-3-2,57,50,41,48,44,38,92,79,64,30.19,29.97,14,4,14,0.13
2013-3-3,50,43,37,38,34,31,87,72,49,30.19,30.11,4,2,7,0.00
2013-3-4,56,44,30,34,27,20,93,57,29,30.20,29.83,7,2,8,0.00
2013-3-5,52,46,41,39,33,21,85,62,35,29.82,29.64,3,0,5,0.00
2013-3-6,44,42,40,41,39,37,94,88,82,29.80,29.48,7,3,7,0.44
2013-3-7,55,46,40,43,40,37,96,83,55,29.99,29.81,5,1,9,0.21
2013-3-8,53,43,34,40,38,34,98,83,58,30.13,29.99,6,1,10,0.00
2013-3-9,56,44,32,40,35,29,96,73,36,30.40,30.14,6,1,10,0.00
2013-3-10,47,42,37,42,38,33,92,85,76,30.40,30.33,2,0,6,0.02
2013-3-11,54,47,41,46,42,39,95,86,66,30.35,30.09,2,0,6,0.05
2013-3-12,55,53,49,50,48,45,92,82,69,30.06,29.99,10,6,20,0.01
2013-3-13,54,52,50,51,49,47,95,89,81,30.11,30.01,9,3,20,0.09
2013-3-14,54,51,48,50,47,44,96,89,73,30.06,29.94,9,2,16,0.07
2013-3-15,58,52,48,51,48,45,95,85,69,30.12,30.05,9,4,15,0.00
2013-3-16,50,47,41,45,41,34,91,80,67,30.05,29.80,19,8,35,0.16
2013-3-17,48,43,40,36,34,32,82,71,57,30.11,29.90,14,7,27,0.00
2013-3-18,54,45,40,38,34,29,80,67,41,30.14,30.04,9,5,19,0.00
2013-3-19,56,42,34,40,36,25,92,79,30,30.13,29.52,5,1,8,0.24
2013-3-20,50,46,40,48,40,32,94,82,68,29.92,29.30,22,10,38,0.31
2013-3-21,48,41,34,37,34,32,95,76,54,30.12,29.93,13,5,22,0.22
2013-3-22,48,40,34,35,31,25,95,74,42,30.28,30.13,4,1,8,0.00
2013-3-23,52,42,33,33,28,23,85,62,36,30.31,30.20,3,0,10,0.00
2013-3-24,56,42,32,34,30,26,86,63,36,30.21,30.03,2,1,7,0.00
2013-3-25,62,50,38,35,30,25,70,48,27,30.03,29.83,5,1,11,0.00
2013-3-26,62,53,46,40,38,35,72,58,37,29.92,29.86,4,1,11,0.00
2013-3-27,59,52,46,48,42,39,81,70,55,29.87,29.84,1,0,6,0.03
2013-3-28,62,54,45,49,46,43,96,77,54,30.04,29.92,7,1,12,0.03
2013-3-29,65,53,46,47,44,41,89,73,41,30.15,30.05,6,1,10,0.00
2013-3-30,67,55,42,46,44,40,93,69,45,30.16,29.98,7,3,17,0.00
2013-3-31,71,57,44,45,43,42,92,64,38,29.97,29.81,3,1,8,0.00
2013-4-1,64,55,47,49,46,41,92,74,55,30.06,29.87,5,2,14,0.00
2013-4-2,55,52,49,48,46,45,87,79,70,30.11,30.06,6,1,14,0.00
2013-4-3,64,56,46,47,45,42,91,68,48,30.09,29.87,2,1,7,0.00
2013-4-4,57,53,50,54,49,46,96,86,76,29.83,29.55,6,2,14,0.20
2013-4-5,57,53,49,51,49,46,95,88,72,29.78,29.64,9,5,24,0.50
2013-4-6,53,48,44,47,44,42,93,86,70,29.85,29.63,8,4,22,0.47
2013-4-7,44,42,40,42,41,39,97,95,93,29.70,29.40,6,2,10,1.09
2013-4-8,58,49,42,45,42,40,96,81,58,30.18,29.85,6,2,8,0.02
2013-4-9,47,45,44,42,41,40,88,85,81,30.23,30.18,3,1,5,0.00
2013-4-10,58,53,48,50,44,40,94,73,58,30.15,29.85,15,7,20,0.29
2013-4-11,55,48,45,43,41,39,86,77,59,30.21,30.13,4,2,6,0.03
2013-4-13,41,41,40,39,39,38,94,93,92,29.91,29.89,1,1,3,0.20
2013-4-14,56,46,38,42,38,30,96,77,39,29.93,29.83,5,1,9,0.32
2013-4-15,58,46,39,41,38,35,93,76,43,30.08,29.86,5,1,6,0.07
2013-4-16,58,46,36,42,37,34,96,74,44,30.30,30.09,6,1,10,0.01
2013-4-17,62,50,38,41,36,28,86,63,28,30.36,30.30,7,2,10,0.00
2013-4-18,52,48,43,48,42,37,92,82,67,30.37,30.15,6,2,8,0.15
2013-4-19,56,51,48,52,49,46,95,92,84,30.13,29.97,10,5,10,0.53
2013-4-20,55,50,47,48,44,42,92,80,66,30.19,30.12,10,5,14,0.01
2013-4-21,53,48,44,46,42,38,90,79,65,30.26,30.14,5,2,6,0.16
2013-4-22,61,50,38,41,35,26,94,62,27,30.43,30.27,9,3,12,0.00
2013-4-23,64,51,37,40,34,26,88,56,24,30.32,30.14,8,2,11,0.00
2013-4-24,70,56,40,43,37,32,86,53,25,30.23,29.96,6,1,7,0.00
2013-4-25,73,59,43,43,38,32,80,48,26,30.04,29.95,3,0,6,0.00
2013-4-26,70,59,47,49,46,42,93,65,39,30.16,30.04,6,1,9,0.00
2013-4-27,58,54,52,49,43,34,86,66,42,30.13,30.07,8,3,8,0.04
2013-4-28,60,53,49,49,44,39,88,73,50,30.12,29.87,13,5,14,0.02
2013-4-29,56,49,43,47,40,33,92,73,45,30.08,29.82,9,3,17,0.17
2013-4-30,57,48,40,37,34,28,84,59,34,30.34,30.08,4,1,8,0.00
2013-5-1,66,52,36,38,34,29,85,53,25,30.48,30.34,4,1,11,0.00
2013-5-2,71,57,44,43,40,36,81,54,33,30.44,30.26,5,2,8,0.00
2013-5-3,71,61,48,49,44,39,80,55,41,30.29,30.12,6,3,11,0.00
2013-5-4,77,64,50,50,44,37,82,52,24,30.13,29.89,9,3,11,0.00
2013-5-5,82,71,52,48,44,41,77,42,24,29.89,29.67,7,3,15,0.00
2013-5-6,86,69,53,49,45,41,77,45,21,29.75,29.64,3,1,6,0.00
2013-5-7,72,62,53,54,51,48,87,69,50,29.91,29.72,5,2,7,0.00
2013-5-8,68,58,52,52,50,48,89,75,55,30.05,29.92,3,1,5,0.00
2013-5-9,72,60,50,54,51,48,93,73,46,30.13,30.02,4,1,4,0.00
2013-5-10,81,67,51,56,52,49,93,62,34,30.10,30.01,4,0,7,0.00
2013-5-11,82,69,56,58,50,42,70,52,33,30.08,29.89,5,1,6,0.00
2013-5-12,73,65,58,59,56,55,93,76,53,30.01,29.93,3,1,6,0.19
2013-5-13,66,57,50,57,52,41,94,83,64,30.09,29.84,15,4,22,0.22
2013-5-14,67,57,47,44,39,32,83,56,28,30.14,30.02,5,1,12,0.00
2013-5-15,68,55,46,51,45,40,93,71,45,30.03,29.92,4,0,4,0.04
2013-5-16,72,62,52,54,50,44,94,70,39,29.93,29.76,6,2,12,0.01
2013-5-17,63,57,53,52,50,46,93,77,54,29.97,29.87,4,2,7,0.06
2013-5-18,63,57,52,50,47,45,84,70,54,30.17,29.98,7,1,11,0.00
2013-5-19,66,59,53,51,49,47,87,70,52,30.30,30.18,4,1,5,0.00
2013-5-20,70,58,50,50,48,45,91,70,42,30.25,29.80,4,1,11,0.00
2013-5-21,61,53,46,48,45,41,94,76,50,29.80,29.69,10,3,12,0.39
2013-5-22,53,47,42,48,44,41,96,90,77,29.85,29.77,4,1,7,0.36
2013-5-23,59,50,45,48,46,44,95,84,59,29.93,29.84,6,1,8,0.12
2013-5-24,64,54,48,49,46,43,94,76,47,29.97,29.88,3,1,6,0.01
2013-5-25,67,57,50,48,46,44,90,70,47,29.96,29.88,3,1,6,0.01
2013-5-26,67,57,52,54,51,48,93,80,58,29.90,29.85,3,0,6,0.05
2013-5-27,60,56,51,56,52,49,95,89,77,29.88,29.62,2,0,6,0.23
2013-5-28,62,56,52,54,50,48,92,83,67,29.80,29.69,5,1,6,0.09
2013-5-29,60,55,50,53,49,46,95,80,62,29.88,29.60,10,2,18,0.11
2013-5-30,63,55,49,48,46,44,86,72,54,30.15,29.89,9,3,13,0.01
2013-5-31,68,59,51,49,46,42,85,63,39,30.25,30.15,2,0,3,0.00
2013-6-1,75,63,52,50,47,44,82,59,34,30.15,29.95,8,1,8,0.00
2013-6-2,71,63,54,52,49,46,87,62,41,30.00,29.95,5,1,8,0.01
2013-6-3,75,62,51,54,50,48,89,67,42,30.03,29.96,3,1,6,0.00
2013-6-4,80,68,53,56,52,48,87,59,33,30.03,29.92,4,1,8,0.00
2013-6-5,79,69,56,56,52,45,75,55,39,29.99,29.92,6,2,11,0.00
2013-6-6,81,70,56,56,50,44,81,54,30,29.96,29.90,3,1,8,0.00
2013-6-7,73,63,57,55,48,42,71,59,42,30.04,29.93,8,2,8,0.00
2013-6-8,70,62,55,52,49,46,75,64,50,30.09,30.00,4,1,5,0.00
2013-6-9,70,62,54,50,47,44,77,59,46,30.02,29.92,6,2,8,0.00
2013-6-10,72,62,51,49,46,43,74,56,37,29.94,29.78,7,2,8,0.00
2013-6-11,68,59,51,46,45,43,78,60,42,30.01,29.85,10,5,14,0.00
2013-6-12,71,60,54,50,46,44,82,63,39,30.06,30.01,9,3,12,0.00
2013-6-13,70,61,53,50,48,44,90,67,40,30.13,30.05,4,1,8,0.01
2013-6-14,70,60,54,50,48,46,77,65,46,30.14,29.96,8,2,8,0.00
2013-6-15,78,66,52,54,50,47,88,59,34,29.96,29.82,4,1,10,0.00
2013-6-16,76,66,56,56,52,49,81,61,46,30.00,29.90,5,2,11,0.00
2013-6-17,78,66,58,54,51,47,86,61,35,30.00,29.80,10,1,12,0.05
2013-6-18,75,65,57,54,50,42,85,60,30,29.89,29.78,9,2,11,0.00
2013-6-19,70,61,54,54,50,48,83,69,46,29.91,29.83,6,2,9,0.02
2013-6-20,62,58,54,54,50,48,90,77,61,30.02,29.87,9,4,12,0.07
2013-6-21,69,61,53,53,51,49,95,73,49,30.07,30.01,2,0,3,0.01
2013-6-22,80,68,52,55,52,50,92,61,37,30.02,29.75,2,0,5,0.00
2013-6-23,72,66,61,63,59,55,94,77,66,29.75,29.50,1,0,3,0.16
2013-6-24,71,63,57,59,56,52,96,79,54,29.61,29.49,7,1,7,0.07
2013-6-25,75,63,56,61,56,51,95,81,44,29.77,29.58,6,1,6,0.68
2013-6-26,74,64,57,62,58,55,95,81,59,29.98,29.75,7,1,7,0.17
2013-6-27,72,65,60,65,61,56,95,85,68,30.10,29.95,1,0,5,0.07
2013-6-28,90,76,63,65,62,59,94,67,36,30.09,29.94,5,0,6,0.00
2013-6-29,86,76,67,63,60,56,78,58,39,30.00,29.88,2,0,2,0.00
2013-6-30,93,80,64,66,62,57,88,58,31,29.91,29.74,3,0,6,0.00
2013-7-1,90,81,68,65,62,59,79,55,37,29.90,29.80,3,1,6,0.00
2013-7-2,83,74,63,61,57,49,81,58,33,30.00,29.92,6,1,10,0.00
2013-7-3,81,72,62,55,50,43,59,46,34,30.04,29.93,3,2,7,0.00
2013-7-4,74,66,60,54,53,51,79,62,48,30.03,29.93,3,1,5,0.00
2013-7-5,74,66,58,55,53,52,81,65,49,29.95,29.86,2,0,4,0.00
2013-7-6,80,68,55,57,54,50,91,63,35,29.89,29.77,4,1,7,0.00
2013-7-7,77,67,59,59,56,53,87,69,48,29.86,29.79,3,1,8,0.00
2013-7-8,80,66,57,58,54,52,84,68,42,30.00,29.86,2,0,2,0.00
2013-7-9,86,74,60,58,55,50,87,55,34,30.01,29.89,4,1,12,0.00
2013-7-10,74,65,58,56,54,52,84,68,53,29.98,29.85,2,0,5,0.00
2013-7-11,72,63,55,51,48,46,74,60,40,29.99,29.90,5,1,12,0.00
2013-7-12,69,61,55,53,49,45,76,63,53,30.00,29.92,3,0,5,0.00
2013-7-13,78,66,52,53,50,45,89,59,31,30.11,30.00,6,2,13,0.00
2013-7-14,82,70,53,52,47,42,82,48,25,30.04,29.88,4,1,8,0.00
2013-7-15,81,71,58,56,50,45,76,50,35,29.95,29.79,8,3,12,0.00
2013-7-16,86,75,61,57,52,45,73,46,30,29.79,29.69,6,1,11,0.00
2013-7-17,72,66,61,58,56,52,82,68,50,30.09,29.78,3,1,7,0.01
2013-7-18,79,68,58,58,55,52,84,67,46,30.13,30.02,3,1,6,0.00
2013-7-19,81,69,58,60,57,54,90,69,46,30.07,29.93,4,1,5,0.00
2013-7-20,78,66,58,59,56,54,89,73,52,30.00,29.86,2,0,6,0.00
2013-7-21,77,66,57,59,56,53,91,73,52,29.89,29.81,3,1,7,0.00
2013-7-22,79,67,58,59,56,54,92,71,45,29.97,29.85,2,0,6,0.00
2013-7-23,86,73,58,59,56,50,91,59,30,29.97,29.86,4,1,8,0.00
2013-7-24,85,74,60,57,53,44,83,51,27,29.95,29.88,3,1,7,0.00
2013-7-25,86,73,57,56,51,46,82,50,26,30.00,29.92,3,1,5,0.00
2013-7-26,85,72,57,55,49,39,76,48,22,30.05,29.96,5,1,7,0.00
2013-7-27,79,69,57,53,50,43,79,53,34,30.07,29.89,3,1,6,0.00
2013-7-28,71,62,54,55,52,50,88,71,55,29.94,29.87,5,2,12,0.00
2013-7-29,76,65,56,55,53,51,81,66,46,29.92,29.85,3,0,6,0.00
2013-7-30,78,67,56,58,54,52,87,66,44,30.04,29.91,3,1,8,0.00
2013-7-31,70,64,58,60,57,54,91,79,65,30.03,29.90,3,0,4,0.00
2013-8-1,69,63,57,56,54,53,89,75,62,29.98,29.94,4,2,5,0.00
2013-8-2,63,61,60,59,56,53,92,82,72,30.04,29.97,2,1,6,0.03
2013-8-3,76,66,60,61,58,57,95,77,55,30.03,29.95,2,0,6,0.02
2013-8-4,83,71,60,61,58,56,87,65,45,29.96,29.84,3,1,6,0.00
2013-8-5,86,74,60,60,57,52,90,60,32,29.91,29.82,2,0,6,0.00
2013-8-6,86,74,58,59,55,48,86,55,27,29.91,29.80,2,0,7,0.00
2013-8-7,86,73,58,58,55,51,85,56,31,29.92,29.83,3,1,7,0.00
2013-8-8,83,70,58,60,57,55,88,65,42,29.94,29.83,3,1,5,0.00
2013-8-9,83,73,60,59,56,54,85,58,38,29.85,29.74,6,1,7,0.00
2013-8-10,81,70,60,62,60,56,93,72,50,29.91,29.80,4,1,6,0.04
2013-8-11,78,69,59,57,56,53,81,62,48,29.97,29.89,4,1,8,0.00
2013-8-12,79,70,60,57,54,52,79,60,42,29.98,29.90,4,1,11,0.00
2013-8-13,82,71,58,58,54,48,83,58,30,30.00,29.82,3,1,6,0.00
2013-8-14,83,68,59,62,57,53,91,70,36,29.88,29.81,4,0,6,0.03
2013-8-15,70,67,64,66,63,62,94,89,82,29.90,29.82,1,0,1,0.04
2013-8-16,84,73,64,64,60,50,94,67,31,29.91,29.84,3,1,8,0.00
2013-8-17,81,71,64,60,57,52,72,60,46,29.97,29.91,5,1,16,0.00
2013-8-18,80,70,61,58,56,52,79,62,44,30.03,29.97,4,2,8,0.00
2013-8-19,81,70,61,58,54,51,79,60,42,30.01,29.95,5,1,8,0.00
2013-8-20,78,69,59,56,51,47,69,54,41,30.06,29.97,5,2,10,0.00
2013-8-21,81,70,55,56,52,48,82,56,35,29.99,29.83,5,2,10,0.00
2013-8-22,85,73,59,56,54,50,80,53,35,29.84,29.70,3,0,5,0.00
2013-8-23,75,68,62,57,55,52,81,66,52,29.80,29.73,6,2,11,0.00
2013-8-24,77,68,61,57,54,47,87,64,36,29.82,29.75,4,1,7,0.00
2013-8-25,74,66,59,57,53,49,78,65,50,29.84,29.77,3,0,5,0.00
2013-8-26,78,67,61,60,57,50,88,72,43,29.86,29.76,6,1,8,0.04
2013-8-27,80,70,62,61,58,57,88,69,47,29.86,29.68,3,0,7,0.16
2013-8-28,79,70,61,64,61,58,96,75,52,29.79,29.73,1,0,2,0.16
2013-8-29,73,67,64,67,64,62,95,90,73,29.92,29.76,4,1,12,0.46
2013-8-30,79,69,61,62,57,52,93,70,40,30.06,29.92,3,1,12,0.27
2013-8-31,81,69,57,59,57,54,93,68,42,29.98,29.74,4,1,8,0.00
2013-9-1,81,70,59,60,57,54,90,65,44,29.80,29.70,3,1,6,0.00
2013-9-2,82,72,61,59,56,54,82,59,41,29.84,29.76,4,0,7,0.00
2013-9-3,74,67,62,64,60,57,95,81,55,29.92,29.83,2,0,5,0.12
2013-9-4,71,66,61,61,60,58,94,81,70,29.95,29.90,3,1,5,0.02
2013-9-5,70,64,61,61,60,58,95,87,73,29.95,29.84,4,1,7,0.42
2013-9-6,72,64,60,63,60,59,97,90,69,30.02,29.86,5,1,12,0.80
2013-9-7,75,66,62,62,60,58,92,79,59,30.02,29.91,2,0,5,0.00
2013-9-8,78,68,59,62,59,57,95,75,51,30.01,29.92,2,0,5,0.00
2013-9-9,77,67,59,62,59,57,94,77,55,29.98,29.88,2,0,6,0.00
2013-9-10,79,68,59,62,60,57,96,77,56,29.90,29.78,4,1,10,0.00
2013-9-11,90,74,60,64,60,57,94,66,34,29.84,29.76,1,0,6,0.00
2013-9-12,79,69,61,62,60,58,93,76,52,29.91,29.80,2,0,5,0.00
2013-9-13,67,63,60,60,60,59,95,89,78,29.88,29.83,1,0,4,0.00
2013-9-14,72,66,62,62,60,59,92,82,69,29.76,29.64,1,0,1,0.02
2013-9-15,66,62,59,62,60,58,96,92,81,29.73,29.62,3,0,6,0.11
2013-9-16,71,63,60,59,57,52,91,81,61,29.83,29.73,6,2,12,0.01
2013-9-17,63,60,57,53,51,49,85,73,62,29.84,29.78,1,0,1,0.00
2013-9-18,72,61,55,54,51,48,88,72,43,29.98,29.84,2,0,5,0.00
2013-9-19,80,63,49,53,50,46,92,67,34,29.94,29.67,2,0,6,0.00
2013-9-20,75,61,52,57,52,49,94,75,42,29.67,29.50,5,1,6,0.06
2013-9-21,73,63,56,58,54,48,95,73,42,29.62,29.56,2,1,8,0.01
2013-9-22,63,58,54,56,53,49,92,83,66,29.66,29.49,6,2,14,0.33
2013-9-23,60,56,53,55,52,50,92,86,73,29.87,29.66,5,1,7,0.16
2013-9-24,64,54,48,50,48,46,95,83,56,29.87,29.75,4,0,8,0.02
2013-9-25,61,52,48,50,48,46,95,87,64,29.94,29.76,1,0,7,0.08
2013-9-26,64,52,43,50,46,42,97,83,53,30.04,29.95,2,0,3,0.00
2013-9-27,58,54,49,53,49,46,91,84,75,30.04,29.77,6,1,6,0.06
2013-9-28,60,56,52,58,54,49,96,92,84,29.76,29.26,17,3,17,1.77
2013-9-29,55,53,52,52,49,47,93,86,73,29.48,29.07,12,5,18,0.64
2013-9-30,55,51,48,52,48,44,94,87,78,29.84,29.36,10,5,13,0.74
2013-10-1,56,50,47,50,46,44,95,85,69,30.03,29.83,7,3,8,0.38
2013-10-2,55,51,49,49,47,46,96,87,73,30.06,29.97,6,1,6,0.31
2013-10-3,58,51,46,49,47,44,97,87,64,30.35,30.09,0,0,0,0.07
2013-10-4,64,50,39,48,44,38,97,83,53,30.39,30.26,0,0,0,0.00
2013-10-5,70,55,44,51,47,42,96,78,46,30.26,30.04,0,0,0,0.00
2013-10-6,74,57,43,52,47,42,97,74,34,30.03,29.78,6,0,6,0.10
2013-10-7,61,55,53,52,48,44,94,79,54,29.92,29.81,9,4,16,0.12
2013-10-8,55,52,46,47,45,42,93,80,64,29.98,29.87,5,2,10,0.23
2013-10-9,60,48,39,46,43,38,96,82,56,30.05,29.87,1,0,1,0.00
2013-10-10,60,51,45,51,47,43,96,85,62,29.98,29.85,3,0,5,0.03
2013-10-11,58,52,50,51,49,46,97,88,67,30.05,29.98,2,0,2,0.27
2013-10-12,58,52,48,49,48,46,97,87,70,30.11,29.98,4,1,6,0.07
2013-10-13,59,49,42,48,45,41,97,88,64,30.27,30.12,1,0,5,0.01
2013-10-14,60,47,38,48,43,37,97,86,61,30.34,30.27,3,0,6,0.00
2013-10-15,60,49,40,48,45,40,97,87,64,30.29,30.08,2,0,3,0.00
2013-10-16,53,49,45,48,46,44,97,90,80,30.11,30.06,4,1,5,0.00
2013-10-17,57,50,46,49,46,44,95,88,71,30.18,30.11,2,0,4,0.00
2013-10-18,58,48,44,50,46,42,98,92,73,30.15,30.06,2,0,3,0.01
2013-10-19,49,47,46,47,46,45,98,96,92,30.10,30.05,1,0,3,0.01
2013-10-20,50,47,44,46,45,43,96,92,85,30.11,30.06,2,0,3,0.00
2013-10-21,54,48,44,48,46,44,97,93,81,30.08,30.00,3,0,5,0.00
2013-10-22,57,48,44,50,46,44,98,93,77,30.02,29.94,1,0,3,0.00
2013-10-23,57,48,45,50,47,44,98,94,76,29.97,29.89,1,0,1,0.01
2013-10-24,51,47,43,49,46,42,98,97,92,30.03,29.93,1,0,2,0.00
2013-10-25,52,49,46,49,47,44,97,93,86,30.22,30.04,4,0,4,0.01
2013-10-26,52,49,44,46,45,43,97,87,79,30.24,30.10,4,1,5,0.00
2013-10-27,53,48,46,48,46,43,96,90,81,30.10,29.81,5,1,16,0.05
2013-10-28,56,49,43,45,38,32,96,69,42,29.85,29.80,7,2,17,0.00
2013-10-29,56,46,34,38,35,32,92,69,46,29.95,29.84,4,1,10,0.00
2013-10-30,57,47,37,46,40,34,91,77,59,30.03,29.94,6,1,24,0.02
2013-10-31,55,52,48,51,48,42,93,88,73,30.16,30.01,3,0,9,0.02
2013-11-1,63,55,51,52,50,47,95,82,58,30.18,29.76,1,0,6,0.00
2013-11-2,54,51,47,51,44,38,97,80,65,29.79,29.41,27,11,56,0.40
2013-11-3,53,45,42,40,38,35,90,78,51,30.02,29.79,6,2,14,0.01
2013-11-4,50,44,37,40,38,35,96,80,58,30.09,29.97,0,0,0,0.02
2013-11-5,54,49,44,50,44,39,97,84,70,30.15,29.92,8,2,9,0.08
2013-11-6,53,48,44,47,44,42,95,87,73,30.22,29.94,2,0,7,0.10
2013-11-7,50,49,47,48,46,44,95,90,79,29.93,29.63,15,7,21,0.89
2013-11-8,54,49,44,45,43,41,88,79,66,30.07,29.89,7,3,10,0.01
2013-11-9,50,45,40,46,43,39,97,91,77,30.06,29.98,0,0,0,0.07
2013-11-10,50,47,45,45,44,43,97,90,82,30.05,29.99,4,2,7,0.00
2013-11-11,56,49,43,47,43,39,97,81,53,30.07,29.90,2,1,4,0.00
2013-11-12,58,52,46,52,49,43,96,89,78,30.28,29.93,5,1,8,0.12
2013-11-13,57,53,50,49,47,45,91,81,68,30.34,30.22,12,4,12,0.00
2013-11-14,50,47,42,47,44,40,96,92,83,30.21,29.98,3,1,5,0.04
2013-11-15,48,45,42,45,42,40,97,90,82,29.97,29.23,15,6,19,0.16
2013-11-16,48,45,40,42,38,36,87,76,64,29.67,29.27,13,4,14,0.00
2013-11-17,51,47,43,47,43,37,95,87,75,29.81,29.68,8,4,14,0.16
2013-11-18,52,50,47,50,48,46,97,94,87,29.82,29.47,5,2,10,0.81
2013-11-19,54,45,39,51,39,23,95,82,51,29.96,29.47,8,2,11,0.11
2013-11-20,43,37,32,30,27,22,84,67,44,30.40,29.98,5,1,6,0.00
2013-11-21,44,34,28,30,26,22,92,74,44,30.57,30.41,3,1,8,0.01
2013-11-22,46,36,30,31,28,25,87,72,45,30.55,30.36,5,2,8,0.00
2013-11-23,49,38,29,36,31,26,92,78,50,30.35,30.10,3,0,3,0.00
2013-11-24,49,37,29,39,33,28,96,87,62,30.16,30.08,0,0,2,0.00
2013-11-25,52,40,31,39,35,30,96,85,57,30.22,30.16,2,0,3,0.01
2013-11-26,51,40,31,40,36,30,97,84,61,30.18,30.01,3,0,3,0.01
2013-11-27,54,46,40,42,39,36,93,77,60,30.00,29.86,3,0,3,0.00
2013-11-28,47,40,35,43,38,34,97,94,84,30.09,29.93,1,0,2,0.00
2013-11-29,48,44,36,45,41,36,96,91,82,30.22,30.08,4,1,6,0.01
2013-11-30,51,48,44,48,44,42,94,85,78,30.24,30.02,7,3,7,0.10
2013-12-1,54,51,46,51,47,38,96,85,73,30.01,29.67,24,13,29,0.06
2013-12-2,45,40,36,37,33,31,94,76,60,29.95,29.69,19,3,22,0.07
2013-12-3,38,35,30,35,26,22,95,70,52,30.21,29.96,5,2,7,0.02
2013-12-4,37,30,25,25,22,20,88,75,54,30.26,30.21,2,0,3,0.00
2013-12-5,33,27,22,25,19,12,87,72,48,30.23,30.09,3,0,4,0.00
2013-12-6,31,27,21,11,7,5,54,42,33,30.13,30.04,4,1,7,0.00
2013-12-7,29,22,18,12,6,1,65,51,31,30.33,30.14,3,1,4,0.00
2013-12-8,32,23,16,16,12,8,76,63,45,30.49,30.33,1,0,3,0.00
2013-12-9,33,27,19,25,18,13,81,70,54,30.50,30.40,1,0,2,0.00
2013-12-10,39,34,31,32,29,24,88,80,75,30.41,30.32,2,0,2,0.00
2013-12-11,40,32,27,33,29,25,95,88,75,30.33,30.08,1,0,1,0.00
2013-12-12,41,36,30,40,35,29,97,95,78,30.08,29.95,5,1,5,0.19
2013-12-13,48,45,41,46,43,40,97,94,86,30.32,30.05,5,1,7,0.04
2013-12-14,48,45,42,44,42,40,96,89,79,30.34,30.24,5,2,6,0.00
2013-12-15,52,49,46,47,46,42,96,89,81,30.35,30.23,8,2,10,0.02
2013-12-16,47,44,38,45,42,37,97,93,84,30.40,30.18,2,0,3,0.07
2013-12-17,46,41,38,42,39,37,98,92,80,30.18,30.02,7,1,9,0.01
2013-12-18,45,41,36,43,38,32,96,89,77,30.07,29.93,5,1,5,0.05
2013-12-19,38,34,30,32,28,25,91,81,59,30.25,30.05,2,0,3,0.01
2013-12-20,44,36,31,43,34,26,97,92,83,30.12,29.62,9,2,9,0.19
2013-12-21,45,43,40,45,42,39,98,97,97,30.07,29.74,5,1,10,0.22
2013-12-22,49,48,45,49,47,44,98,97,95,30.20,30.07,8,3,10,0.23
2013-12-23,52,49,44,48,44,39,94,84,63,30.41,30.05,17,6,17,0.04
2013-12-24,46,42,35,39,37,33,93,85,72,30.52,30.41,2,0,2,0.00
2013-12-25,42,36,32,37,34,31,97,91,77,30.44,30.31,1,0,2,0.00
2013-12-26,43,37,34,38,35,32,97,93,81,30.31,30.12,1,0,3,0.01
2013-12-27,45,38,31,43,37,30,98,95,87,30.23,30.05,7,1,7,0.02
2013-12-28,47,42,36,42,39,34,95,90,81,30.41,30.38,1,0,2,0.00
2013-12-29,43,38,33,39,36,33,98,93,83,30.39,30.21,2,0,2,0.00
2013-12-30,46,41,38,41,39,37,97,91,80,30.22,30.04,11,1,11,0.01
2013-12-31,46,44,40,45,42,38,97,90,77,30.28,30.10,4,0,5,0.04
2014-1-1,43,40,38,42,40,37,98,97,95,30.31,30.16,1,0,2,0.01
2014-1-2,49,45,42,45,42,41,97,90,77,30.15,29.81,9,2,18,0.52